Theta_e
333 332 332 333 333 334 335 335 336 338 339 338 337 335 334 335 335 334 333 332 332 333 333 332 330 325 325 324 325 324 324 324 325 326 326 327 329 334 334 333 332 332 331 331 330 330 329 329 328 329 329 329 329 329 328 329 328 327 326 325 324 325 325 324 323 323 324 323 322 323 323 323 323 322 322 322 321 321 321 320 320 321 321 321 321
333 332 332 332 332 333 335 334 335 336 339 338 338 336 334 334 334 335 334 334 334 334 336 334 332 330 325 325 325 325 325 324 325 326 327 328 329 332 336 334 332 332 332 331 331 331 331 330 330 329 329 329 330 330 329 329 329 329 327 327 326 325 326 326 325 325 325 325 325 323 323 323 323 323 323 322 322 322 322 321 321 321 321 321 321
333 331 332 332 331 332 333 333 334 335 336 338 338 337 335 334 334 334 334 333 334 334 335 334 332 329 328 325 325 325 325 325 326 326 327 328 328 330 334 335 333 333 333 333 332 331 331 331 332 332 331 330 330 331 330 330 330 330 329 328 328 327 327 327 326 325 325 325 325 324 324 324 324 324 324 323 323 323 322 322 322 322 322 321 322
333 331 332 331 330 331 332 332 333 334 335 336 336 337 336 335 335 335 334 334 334 334 334 333 332 329 327 326 325 325 325 325 326 326 327 328 328 329 331 334 335 333 333 333 333 333 332 332 332 331 332 332 332 332 332 331 331 331 331 330 329 329 329 328 328 327 326 326 325 325 325 325 325 324 325 324 324 324 324 324 324 324 324 324 323
334 334 337 331 331 331 330 333 333 334 334 335 335 335 336 336 335 337 335 334 333 332 333 332 331 328 327 327 326 325 325 325 326 326 327 328 328 329 329 332 334 336 334 334 334 334 334 334 334 334 334 332 333 333 333 333 332 332 331 332 331 331 330 330 329 329 328 328 327 327 326 326 326 326 326 326 326 325 325 325 325 325 326 326 325
334 334 335 332 332 332 331 331 333 334 335 335 334 335 334 334 335 336 337 339 332 331 332 330 328 328 328 328 326 326 326 325 326 326 327 328 328 328 329 329 331 332 333 335 334 334 334 335 335 335 335 334 334 335 334 333 333 334 334 334 333 333 332 331 331 331 330 329 329 329 328 328 328 327 327 327 327 326 326 326 326 327 327 327 327
337 335 334 333 332 332 332 333 334 335 335 336 335 335 334 334 336 333 332 333 332 335 331 330 329 329 328 329 327 326 326 325 326 326 326 327 328 328 328 329 330 330 331 331 335 335 335 335 336 336 335 335 334 335 335 334 334 334 334 335 335 335 334 334 333 332 332 331 330 330 330 329 329 329 329 329 328 328 327 328 328 328 328 328 329
338 336 334 333 333 333 333 335 336 336 335 335 335 334 334 333 333 332 333 333 336 333 334 331 330 331 331 330 328 330 327 326 326 326 327 327 327 327 328 328 329 330 332 331 332 332 336 336 336 337 336 336 335 335 336 336 336 336 336 335 335 335 337 336 335 334 333 333 332 332 331 331 330 330 330 331 331 330 330 329 329 329 329 330 330
337 338 336 334 333 333 334 335 337 336 335 334 335 335 334 332 332 334 333 332 332 332 333 333 332 333 333 332 331 332 329 328 327 327 327 326 326 327 327 327 329 333 333 332 332 331 333 336 338 338 338 337 336 336 336 336 337 338 337 337 337 336 338 339 337 336 335 335 334 333 333 332 332 332 332 332 332 332 331 331 331 331 331 331 332
336 336 336 337 336 335 334 335 336 335 334 334 334 334 333 333 332 332 336 334 332 332 332 333 333 333 333 334 333 333 332 331 330 332 328 326 327 326 327 328 329 329 331 332 331 332 331 332 335 337 339 338 337 337 338 338 338 339 339 339 339 339 339 339 339 338 337 336 336 335 335 334 334 333 333 333 333 333 333 333 332 334 332 332 333
335 336 335 336 335 335 334 334 335 333 333 333 332 334 334 332 332 332 336 335 334 332 331 332 333 333 332 332 333 333 333 332 333 332 329 328 327 328 327 328 328 328 329 331 331 331 331 331 330 332 335 338 339 338 338 339 339 340 340 340 340 340 341 341 340 340 339 338 337 337 336 336 335 335 335 335 335 335 335 334 334 334 334 334 334
334 334 335 336 333 334 334 334 334 333 332 331 331 332 333 332 332 333 334 336 333 332 332 334 331 329 332 333 331 331 332 334 334 333 332 329 329 330 329 328 328 328 328 329 330 330 331 330 331 330 330 332 336 338 339 339 339 340 340 340 340 341 342 341 341 341 341 339 339 338 338 337 337 336 336 336 336 336 336 335 335 335 335 335 335
335 333 333 338 334 333 334 333 333 333 331 331 332 332 332 334 334 335 334 333 332 330 332 331 328 329 328 328 329 330 334 337 333 333 333 333 331 331 331 330 329 328 329 329 329 330 330 330 330 330 330 330 331 334 337 338 339 339 340 341 341 342 342 341 342 341 341 341 340 339 339 339 338 338 338 337 337 337 337 336 336 336 336 336 336
336 334 334 333 332 333 333 333 333 332 332 332 331 335 334 332 332 332 331 331 330 331 331 329 326 325 324 324 327 328 331 332 333 333 334 334 333 333 332 331 330 330 330 330 330 329 329 330 330 329 329 329 330 331 333 335 336 338 339 340 342 342 342 342 342 342 341 342 342 341 340 340 340 339 339 339 338 338 338 337 337 337 337 337 338
335 335 333 333 332 332 332 334 333 333 332 332 332 331 331 331 330 331 329 328 330 331 331 329 327 323 325 323 320 321 325 326 329 332 333 334 334 333 333 332 332 333 332 331 330 330 330 330 329 329 329 329 330 330 332 332 333 334 337 339 341 342 343 343 343 343 342 342 342 342 342 341 341 341 341 340 339 339 339 338 338 338 338 338 337
335 335 334 333 332 331 332 332 332 333 333 331 329 330 330 330 329 330 329 328 327 327 332 330 327 328 322 320 320 320 319 321 321 327 329 333 334 333 333 333 334 335 335 333 333 333 332 332 330 330 330 330 330 331 331 332 332 333 335 337 338 340 341 342 343 343 343 343 342 342 342 342 342 342 342 341 340 340 340 340 340 340 340 339 338
336 336 336 334 333 332 331 331 332 332 333 331 329 330 331 331 331 330 330 330 327 324 328 330 329 331 326 321 319 318 318 320 320 325 326 333 332 333 334 334 334 335 336 335 335 335 334 333 333 332 332 331 331 331 332 332 333 334 334 335 337 338 339 340 341 342 343 343 342 342 343 343 344 343 343 342 341 341 341 341 341 341 340 339 338
334 336 338 337 335 335 334 333 333 333 333 332 332 330 329 330 330 330 330 329 329 327 326 329 330 331 329 327 325 321 321 323 322 320 325 330 330 332 334 336 336 335 335 335 336 336 336 335 335 334 334 333 333 333 332 333 333 333 334 334 335 337 339 340 341 342 342 343 343 343 343 343 343 343 343 343 342 342 342 342 342 340 339 338 338
332 334 335 338 336 335 335 335 334 333 335 332 331 331 331 331 332 330 330 330 329 327 326 326 327 329 330 330 330 330 326 325 321 320 320 324 326 329 333 334 335 334 334 335 336 335 336 336 336 337 337 336 335 335 334 334 333 333 334 334 335 337 338 340 341 342 343 343 344 344 344 343 343 343 343 343 343 342 341 341 340 338 338 338 338
332 332 333 335 336 334 335 335 335 334 335 333 332 331 331 331 333 331 331 331 329 328 328 327 327 325 328 328 329 331 329 329 326 325 321 319 323 327 328 328 331 334 335 335 334 336 336 336 336 337 338 337 338 337 336 335 335 335 336 336 338 338 340 340 342 342 343 343 344 344 343 343 342 342 342 342 342 341 339 338 338 338 338 338 338
333 333 332 333 338 335 334 334 335 335 337 334 333 332 331 331 331 331 330 330 330 329 328 328 326 327 326 326 328 328 328 329 329 326 324 320 322 321 322 325 329 332 334 335 335 335 336 337 338 339 337 338 338 339 338 338 337 337 336 337 339 341 342 343 343 343 343 343 344 343 343 342 342 341 341 341 341 341 339 339 338 338 337 337 337
331 333 333 333 335 337 334 334 335 335 337 336 334 332 331 331 331 331 331 330 330 331 330 329 328 328 327 327 326 326 326 325 326 326 325 325 322 322 323 323 322 327 328 330 330 332 334 336 337 340 340 339 339 339 339 339 339 338 337 337 340 341 342 343 343 343 344 344 343 343 342 341 341 340 340 341 341 340 339 338 337 336 336 335 335
330 332 332 333 333 335 335 334 334 336 337 336 334 334 333 333 332 331 331 330 330 330 330 330 330 328 328 327 327 327 326 325 325 325 326 323 322 323 324 325 324 325 329 328 332 333 334 335 336 337 339 341 340 338 338 339 336 336 334 334 338 340 343 344 344 342 342 342 341 341 341 341 341 342 342 342 341 340 338 336 335 335 334 334 335
328 329 330 332 333 333 335 334 334 334 335 336 335 335 335 334 332 332 331 331 331 330 330 329 329 329 329 329 328 328 327 326 326 327 325 325 324 324 324 324 325 325 329 329 330 331 333 334 337 338 337 338 338 339 338 338 338 333 336 333 334 341 345 343 343 343 342 342 342 342 341 342 341 341 340 340 339 337 336 334 333 333 333 332 332
327 328 329 330 333 332 332 333 333 334 334 335 335 336 335 334 333 332 332 331 330 330 329 329 330 329 329 330 330 329 329 330 329 328 328 329 327 324 326 325 324 325 325 327 332 333 332 335 336 338 338 337 337 338 338 338 338 334 332 332 333 338 342 343 343 342 342 342 342 341 339 339 339 338 337 336 335 333 332 331 331 331 331 330 330
328 328 330 330 332 333 334 333 333 333 335 335 335 335 336 335 335 333 332 333 332 331 331 331 330 331 331 330 329 330 330 331 331 330 329 328 326 325 325 325 324 325 324 324 328 329 333 332 334 337 336 337 338 338 338 338 338 330 331 337 336 334 337 341 342 342 341 341 340 339 338 337 336 335 334 332 330 329 329 329 329 329 329 329 329
328 330 332 331 331 332 332 332 332 333 334 333 334 337 336 334 333 332 333 333 332 332 331 331 330 330 330 330 330 330 330 331 330 330 330 330 329 328 326 321 322 323 323 323 323 326 330 331 333 338 337 338 338 339 339 338 333 329 331 338 339 330 332 336 339 340 340 339 339 336 335 335 334 332 330 329 327 327 327 326 327 327 327 328 327
328 329 329 331 330 330 332 333 332 332 332 332 331 332 332 332 331 331 331 333 332 332 332 332 331 331 330 331 330 330 332 331 331 331 330 331 330 330 329 326 320 318 322 322 321 325 327 329 332 335 336 337 337 338 335 334 334 328 330 336 337 335 329 331 332 335 337 337 335 334 333 332 330 329 328 327 326 325 324 324 324 325 326 326 325
326 329 328 328 328 329 329 330 330 330 330 331 331 332 332 331 330 330 330 331 332 332 333 331 331 332 332 331 331 331 332 332 331 331 331 331 330 330 331 328 325 319 318 318 320 322 326 329 331 335 335 337 337 337 338 335 331 332 334 334 335 337 326 325 326 330 334 334 334 334 333 331 330 328 327 325 324 322 321 321 322 323 324 324 322
326 328 329 327 326 332 328 328 328 328 329 329 331 332 332 331 330 330 331 332 332 333 333 331 331 333 333 332 332 331 333 333 332 331 331 331 330 330 329 330 327 322 321 319 320 322 327 328 330 334 336 334 335 337 337 334 328 331 332 332 333 334 320 321 322 326 328 326 326 328 330 330 330 328 325 323 320 319 319 320 321 322 322 321 318
327 326 324 325 325 325 326 327 327 328 328 329 330 331 332 330 330 330 330 331 331 331 332 331 332 332 331 331 333 332 333 333 333 331 331 330 330 330 329 329 328 325 324 324 319 325 327 329 330 330 334 333 333 336 334 333 330 331 332 331 332 323 322 323 320 320 320 318 319 320 324 328 327 325 322 319 317 316 317 318 319 318 317 315 315
322 323 323 324 324 325 324 326 327 326 326 327 329 330 330 330 330 330 331 330 330 330 331 332 332 332 331 331 332 332 333 333 332 332 332 331 330 329 329 329 328 329 327 322 320 320 326 328 329 329 330 332 332 333 332 332 329 325 331 330 327 322 328 326 319 318 317 316 317 317 319 323 324 322 318 316 315 315 316 315 315 313 312 312 312
321 321 321 320 321 323 324 328 328 328 328 328 328 329 329 330 330 330 331 331 331 331 332 332 333 333 332 332 332 333 333 332 331 332 331 331 330 329 329 329 329 329 326 323 322 322 325 325 327 329 330 331 333 332 332 331 329 328 324 326 326 327 325 326 323 315 315 314 313 312 313 314 315 316 316 315 314 312 311 310 309 311 311 311 310
320 320 319 320 321 322 323 324 327 327 328 327 327 329 328 327 327 328 328 329 329 328 329 329 330 331 331 331 331 331 333 332 332 331 332 332 331 330 329 328 328 329 329 326 324 324 323 323 324 326 330 329 333 332 333 329 326 325 323 321 322 323 323 324 323 320 313 313 312 311 310 309 307 307 309 311 307 303 303 303 304 306 308 308 307
319 318 318 318 319 318 317 317 318 319 321 322 322 324 325 325 325 326 326 327 327 327 327 328 329 330 328 329 329 331 332 332 332 332 332 331 331 330 330 330 329 330 330 330 327 323 323 325 325 325 327 327 330 331 332 332 327 325 321 321 320 319 320 321 321 318 310 310 310 309 307 306 305 304 304 305 303 302 302 302 302 302 302 303 302
318 318 316 316 316 316 316 315 315 316 317 318 318 317 317 317 317 318 321 323 324 325 326 326 326 328 329 327 328 329 330 329 331 331 331 331 330 330 330 330 329 330 330 329 329 328 326 324 322 325 325 328 329 329 332 330 327 325 322 320 319 318 318 318 318 316 311 309 308 307 306 305 304 303 303 303 303 302 302 302 302 301 301 301 301
316 316 317 315 314 314 314 314 314 314 315 315 314 313 313 313 312 312 313 314 316 319 322 325 328 327 325 326 328 330 329 329 329 330 331 331 330 330 329 329 329 329 330 330 329 328 327 324 323 322 325 328 329 329 330 327 325 324 322 319 318 317 318 317 315 313 310 308 308 307 306 305 304 303 303 303 302 302 302 302 302 302 301 301 301
315 315 315 315 315 313 313 313 313 313 312 313 312 311 310 309 309 309 310 311 312 313 315 318 321 324 326 327 328 329 328 327 328 330 330 330 331 330 329 329 329 329 329 329 329 328 326 326 326 321 323 325 325 325 328 328 325 321 319 318 318 318 315 314 314 313 313 312 311 310 307 306 305 304 303 303 303 302 302 302 302 302 302 302 301
315 314 314 315 316 313 313 312 312 312 311 310 309 308 307 307 307 308 308 309 309 311 312 313 315 317 320 323 326 329 328 328 328 329 329 329 329 329 330 329 330 329 328 329 328 327 325 325 324 323 323 324 326 325 323 328 327 323 318 315 314 315 316 315 313 315 315 313 310 309 309 309 307 307 303 303 303 303 303 303 303 304 304 302 301
314 314 314 314 315 313 312 312 312 312 309 308 306 306 306 306 307 307 307 308 309 310 311 311 312 313 314 316 318 322 327 328 328 328 329 328 330 329 330 330 330 329 328 328 327 326 325 324 324 321 322 323 322 320 321 324 323 321 320 317 313 313 313 315 316 314 313 313 310 309 308 308 308 306 304 305 305 305 305 305 305 306 306 303 301
315 314 314 313 313 312 311 310 310 312 309 308 308 306 304 304 306 306 307 308 309 310 310 311 312 312 313 314 315 317 320 324 322 322 325 326 326 327 329 329 329 328 328 327 327 326 325 324 322 320 321 320 321 318 317 319 321 321 321 320 316 315 315 313 314 316 314 311 310 308 307 309 308 308 308 307 307 307 306 306 306 305 304 302 300
314 314 313 313 313 313 311 310 309 309 309 308 313 310 308 307 304 304 305 306 308 309 310 311 312 312 313 313 315 317 317 317 317 314 311 312 317 323 326 328 328 327 327 326 326 326 325 323 322 320 319 319 320 318 319 320 324 324 321 318 314 313 311 311 311 313 315 313 309 307 307 308 309 307 307 306 310 310 308 308 307 304 302 300 299
313 314 313 312 312 311 311 310 308 308 308 308 307 296 295 302 306 304 304 305 306 307 309 310 311 312 313 314 315 317 317 317 316 311 309 309 309 310 311 314 321 327 327 325 326 326 324 324 323 321 321 320 322 321 321 321 320 322 322 319 316 311 309 308 307 307 313 314 310 308 307 309 308 306 308 309 310 312 313 311 302 301 300 300 300
312 313 312 312 312 310 308 308 308 308 308 309 300 295 294 295 302 306 304 304 305 306 308 310 311 313 313 314 316 317 318 319 319 320 317 313 308 307 307 308 307 307 311 323 326 325 325 325 324 322 322 321 321 321 320 317 317 319 320 318 314 311 310 310 310 307 312 315 311 307 305 307 309 308 306 304 306 311 313 304 300 300 299 299 299
312 311 312 311 310 309 309 308 308 307 308 303 297 296 296 295 295 302 302 302 303 305 307 310 312 313 314 314 315 317 318 321 321 321 321 321 315 310 309 309 309 307 303 301 306 325 329 326 325 324 323 323 322 322 322 320 319 318 318 315 313 312 312 311 310 307 309 314 311 307 304 304 305 303 303 302 304 309 309 303 301 300 299 298 298
312 311 310 310 309 308 308 308 308 307 306 304 298 297 296 295 294 295 301 301 303 305 308 310 312 313 313 314 314 314 316 317 319 321 322 322 322 321 322 321 320 320 312 305 304 303 311 324 327 326 326 325 324 324 324 319 318 317 316 314 312 311 311 312 310 309 308 312 310 306 302 300 301 301 300 300 303 304 306 302 299 299 298 298 298
311 311 310 309 309 310 309 308 307 307 307 302 297 295 295 295 294 295 300 301 304 305 307 309 311 311 312 313 313 313 315 316 317 318 319 320 321 322 322 322 323 323 323 324 321 320 319 319 323 327 328 328 327 327 325 321 320 320 319 317 313 311 308 305 305 306 305 306 308 307 300 298 301 298 297 298 300 301 303 299 298 298 298 298 297
310 310 309 309 309 309 308 307 306 307 307 298 294 293 293 293 293 301 301 302 302 304 305 307 309 310 311 311 312 312 313 314 314 306 310 316 319 319 319 321 323 324 324 323 315 315 323 324 324 325 327 329 319 327 325 322 321 318 313 309 306 304 304 304 301 302 303 302 302 303 299 297 300 296 296 298 299 299 301 302 299 298 298 297 297
309 308 309 309 310 308 307 306 305 305 306 300 294 292 292 292 295 300 300 301 302 303 304 306 308 308 309 310 310 312 313 314 310 301 300 305 312 313 315 318 321 322 323 324 312 305 305 305 305 305 304 303 302 305 306 307 315 314 310 307 305 305 304 301 300 299 300 300 300 302 298 295 297 297 296 298 299 298 299 300 301 298 297 297 297
307 308 309 308 307 307 306 306 305 305 305 303 294 291 290 291 300 302 301 301 301 302 303 305 306 307 308 312 314 312 312 311 303 298 297 302 307 311 313 314 317 319 321 323 321 314 303 301 300 300 300 300 302 301 303 304 304 309 313 309 307 307 305 302 299 300 298 299 299 301 297 296 297 297 295 296 298 299 299 299 300 299 297 297 296
308 308 308 306 305 304 305 305 309 307 305 304 297 294 293 293 299 301 300 300 300 301 302 304 305 306 307 308 309 309 309 306 296 295 294 300 305 309 311 313 314 316 320 321 318 316 314 313 314 315 311 309 313 313 313 303 304 312 316 315 309 308 306 303 300 298 297 298 299 301 296 295 295 295 295 293 293 296 298 300 299 299 299 299 298
Wind_Speed
4 3 3 2 1 1 1 2 2 2 3 2 3 4 3 3 3 3 3 4 5 2 4 3 3 4 5 5 5 5 4 4 4 4 4 4 4 4 9 8 7 8 6 6 6 5 5 5 2 5 5 5 6 5 5 5 5 5 5 5 4 5 4 4 3 3 3 2 1 1 1 0 1 0 1 0 0 1 2 2 2 3 4 5 5
4 4 4 3 2 1 1 2 3 3 3 4 3 3 4 4 4 4 4 5 5 4 3 1 2 3 4 5 5 5 5 5 5 5 4 4 4 4 8 9 7 8 8 6 6 5 8 7 5 5 6 6 6 6 6 6 4 6 6 6 6 5 5 5 4 4 5 4 3 2 2 2 2 2 1 1 2 2 2 3 3 4 5 5 6
4 5 4 4 3 3 3 2 3 3 2 3 3 2 3 3 3 3 3 3 3 3 3 3 2 3 4 5 5 4 5 4 4 4 4 4 4 4 4 8 9 9 8 7 7 7 6 7 8 8 7 6 6 7 7 6 5 5 8 8 7 7 6 6 5 5 5 5 4 3 3 3 3 3 3 3 3 2 2 2 4 4 5 6 6
5 4 5 4 4 4 4 3 4 3 2 3 3 2 3 3 3 3 4 3 4 3 3 3 3 3 3 5 4 4 4 4 4 4 4 4 4 4 4 3 8 10 9 8 7 8 8 7 8 6 9 9 8 7 8 7 6 6 6 9 9 8 8 7 7 6 6 5 5 4 4 4 4 4 4 4 4 2 2 3 4 5 5 5 5
5 5 5 5 4 4 4 4 4 3 3 3 3 3 3 3 4 3 3 3 3 4 3 3 4 3 4 4 4 4 4 3 4 4 5 4 4 4 4 4 3 7 10 9 8 9 10 9 8 9 8 7 8 9 8 8 8 7 7 8 10 9 9 8 8 8 7 7 7 6 5 6 5 5 5 5 5 3 2 2 3 3 5 5 4
6 5 4 4 4 4 4 4 4 4 3 3 3 3 3 3 4 3 4 3 3 3 2 3 3 2 3 4 4 4 3 4 4 5 4 4 4 4 4 3 4 3 4 8 10 9 10 10 9 9 9 8 8 8 8 8 9 8 8 7 8 10 10 10 9 9 9 8 8 8 7 7 7 6 6 6 5 4 3 4 4 5 5 6 5
4 5 5 4 4 3 4 4 3 3 4 4 4 3 4 4 2 3 4 3 2 2 3 3 3 3 3 4 4 4 4 4 4 4 4 4 4 4 4 4 4 4 4 3 5 10 11 11 10 10 9 9 9 8 8 9 9 8 7 7 7 9 11 11 11 11 10 10 9 9 9 8 8 8 7 7 6 4 5 6 6 5 6 7 7
5 4 4 4 5 4 4 4 4 3 3 3 3 4 3 2 1 2 3 4 3 2 0 3 2 4 4 4 4 5 5 4 5 4 3 3 4 4 4 4 4 4 5 4 4 4 9 11 11 11 11 10 10 9 9 10 10 10 10 9 8 8 9 12 12 12 11 11 10 10 10 9 9 9 9 8 7 5 5 5 6 6 7 7 8
5 4 4 3 3 4 4 4 4 4 4 3 4 3 3 3 3 1 1 2 2 3 1 2 4 4 3 4 4 5 5 6 5 4 3 4 4 4 4 5 5 7 4 4 4 4 6 10 10 11 11 11 10 11 11 11 11 11 11 11 10 9 9 8 12 12 12 12 11 11 10 10 10 9 9 9 8 7 6 7 8 7 7 8 7
4 4 4 3 3 3 3 4 4 3 3 3 4 3 4 4 4 2 1 2 1 2 3 2 2 2 3 3 4 5 5 5 4 4 5 5 5 6 5 4 4 5 4 4 4 4 4 6 10 11 12 12 11 11 12 12 13 13 13 12 12 11 10 8 9 11 12 12 12 12 11 11 11 10 10 10 9 8 8 8 7 6 8 8 8
5 4 4 4 3 2 3 3 3 3 3 3 3 3 3 3 4 4 1 1 2 1 2 2 2 3 3 4 3 4 4 4 3 4 5 5 5 5 4 5 4 5 5 5 4 4 5 4 4 4 6 12 12 12 13 13 13 13 13 13 12 12 12 10 9 9 11 12 12 12 12 12 12 11 11 11 11 10 10 10 9 8 8 9 8
4 4 4 3 3 2 3 3 3 3 3 4 5 4 6 5 4 4 4 1 2 2 1 1 2 3 4 5 4 4 4 4 5 6 5 5 5 4 5 4 4 5 5 5 4 5 5 5 4 5 5 7 11 12 13 13 13 13 14 14 14 13 13 12 10 10 10 12 12 12 12 12 12 12 12 12 12 12 11 10 10 10 10 10 10
4 4 4 4 3 2 2 3 2 3 2 3 4 6 3 4 3 1 3 3 1 2 2 1 2 4 3 5 6 5 5 4 6 5 6 5 4 5 4 4 5 5 5 4 5 5 5 5 5 4 5 5 6 11 12 13 12 13 15 15 15 15 14 13 11 10 10 10 12 12 12 12 13 12 12 12 12 12 11 11 11 11 12 12 11
4 4 4 4 4 2 1 1 3 2 2 2 5 3 3 3 3 2 2 1 2 1 2 2 2 1 3 5 4 4 4 4 5 5 6 5 5 5 5 6 6 5 4 4 5 5 5 5 4 5 5 5 5 5 6 7 10 13 15 15 16 16 15 15 13 12 11 11 11 11 12 12 12 13 12 12 12 12 11 11 11 11 12 12 11
6 5 5 4 4 4 4 3 2 2 3 2 5 6 4 5 4 4 3 0 1 2 2 2 3 1 1 1 4 4 4 4 2 4 5 5 4 5 6 5 7 5 4 4 4 5 5 5 6 6 5 6 5 5 5 6 7 9 11 14 15 15 15 16 15 14 12 12 12 11 11 12 12 13 12 12 11 10 10 11 12 12 12 11 10
6 6 5 5 6 6 4 4 4 4 3 3 6 6 4 4 4 4 2 2 1 1 1 4 3 2 4 2 2 1 4 3 4 4 1 4 5 5 4 5 5 3 3 5 5 5 5 4 6 6 6 6 5 5 5 6 8 10 11 12 13 14 14 15 15 15 14 12 12 12 11 11 13 12 12 11 10 9 10 11 11 12 11 10 10
5 6 6 6 6 5 5 4 4 5 5 7 7 8 5 5 5 4 5 5 4 2 1 3 4 2 4 0 3 1 3 3 4 5 2 1 4 5 5 5 5 4 4 5 4 4 4 5 5 5 6 6 6 6 6 6 6 6 7 10 13 13 13 14 14 15 15 14 12 12 11 11 12 12 12 11 10 10 10 11 11 10 9 9 10
5 5 5 5 6 6 6 6 6 6 7 8 6 4 5 5 6 6 5 5 4 3 3 1 3 4 4 2 4 1 2 3 1 4 5 2 3 3 4 5 4 4 4 5 5 5 4 5 5 6 6 5 5 6 6 6 5 5 5 6 10 11 11 12 13 13 14 13 12 12 12 12 12 12 11 10 9 10 9 9 9 9 9 9 9
5 5 6 6 6 6 7 7 6 6 5 5 5 6 5 5 4 5 5 4 4 5 5 4 1 3 4 5 4 3 2 1 2 2 5 5 4 2 3 2 2 3 4 5 5 4 4 4 5 6 6 5 5 6 5 5 6 7 8 9 9 10 11 11 11 11 11 11 11 11 9 9 8 8 8 8 7 5 6 6 7 7 7 7 7
4 4 4 5 5 6 6 5 5 5 5 6 6 5 4 3 5 5 4 4 5 6 6 3 4 3 1 3 4 4 4 3 4 2 3 4 8 5 3 3 2 4 5 4 4 5 5 4 5 5 5 5 5 5 5 5 5 5 5 9 10 10 10 10 10 9 8 8 8 8 7 6 5 5 5 5 4 3 3 3 4 5 4 4 5
3 4 4 4 4 5 5 5 5 5 5 5 5 5 6 5 5 5 5 5 5 5 4 5 4 5 3 2 2 3 3 4 4 4 4 3 6 4 6 5 4 5 3 3 3 3 4 4 4 5 4 5 5 5 4 4 4 4 5 8 9 9 8 7 7 6 5 4 3 2 3 2 3 3 3 2 2 6 7 6 7 7 8 9 10
3 3 4 4 4 4 4 5 5 5 5 6 5 5 5 6 6 6 6 6 5 5 6 5 4 4 4 3 2 1 0 1 3 3 3 5 6 6 5 7 7 5 3 3 2 3 3 4 4 4 4 4 4 3 3 4 3 4 5 7 8 6 5 5 2 2 4 4 5 4 4 4 3 2 2 4 6 8 7 7 9 10 10 11 10
3 3 4 4 4 3 4 4 3 4 5 5 6 6 6 6 5 6 7 7 5 6 6 5 4 4 4 4 5 5 5 4 3 3 3 3 2 5 6 5 5 7 5 2 4 3 2 2 3 4 4 4 3 2 3 3 4 5 6 6 6 4 3 5 8 7 7 7 6 5 4 4 6 8 9 9 11 12 12 12 12 11 11 11 12
3 4 4 5 5 5 6 6 6 6 6 5 5 6 5 5 5 6 6 6 5 5 5 5 6 5 5 5 5 5 4 5 4 3 4 3 3 5 5 4 4 4 4 5 3 2 3 3 3 3 3 3 3 3 3 3 4 7 5 5 4 5 10 10 10 9 8 8 8 9 9 10 11 11 12 13 13 13 14 13 12 12 13 13 13
4 4 5 5 4 5 5 4 5 5 5 5 5 4 4 5 5 5 4 5 6 5 5 6 6 6 5 4 4 4 5 4 4 4 3 3 3 4 4 1 5 5 3 2 3 4 4 4 3 3 2 2 2 3 3 3 3 4 5 3 9 10 10 11 10 10 10 10 11 11 11 12 13 13 14 13 13 13 13 12 13 13 13 14 14
4 5 4 4 5 5 5 5 4 5 5 3 3 5 6 6 5 5 5 5 4 6 6 6 5 6 4 5 5 5 5 4 5 4 4 3 3 4 3 2 1 5 3 2 2 3 2 3 2 1 1 2 2 2 2 3 2 5 7 6 8 10 11 11 12 12 12 12 13 13 13 12 14 14 13 13 13 13 13 12 13 13 13 14 14
4 4 3 4 4 4 4 5 5 6 5 6 7 5 5 4 3 4 4 3 4 4 5 5 6 7 7 7 6 5 5 4 4 5 4 5 5 3 3 5 5 2 3 2 3 3 6 3 2 1 1 2 2 2 2 1 2 7 8 5 4 10 11 11 11 13 13 14 14 13 13 13 14 14 13 13 13 13 13 13 12 12 13 13 13
4 3 3 2 3 4 4 4 4 5 5 5 4 4 4 4 4 4 6 5 5 6 5 5 7 8 7 6 6 8 6 6 5 4 5 5 4 3 3 4 4 6 4 6 2 3 1 1 2 1 1 1 1 1 1 3 2 8 6 4 4 6 10 11 11 11 13 14 14 14 15 14 14 14 14 13 13 13 13 13 13 12 13 13 13
3 2 3 1 2 3 3 4 4 4 4 3 4 5 5 5 5 6 7 6 5 6 5 6 6 6 7 8 6 7 7 5 6 6 6 4 4 4 5 5 4 4 4 3 4 4 3 2 2 1 1 1 1 1 3 3 5 6 4 4 5 6 9 11 12 11 12 12 13 14 14 15 14 14 14 14 14 13 13 13 13 13 13 14 14
2 2 1 1 0 1 2 2 2 3 4 4 4 5 5 6 6 6 6 5 5 5 7 7 7 6 7 6 6 6 6 6 6 6 6 6 5 4 4 5 7 8 5 4 6 3 4 2 3 2 1 1 1 1 2 3 6 7 5 6 5 7 10 12 12 12 12 11 11 11 13 14 15 15 14 14 14 13 13 13 13 13 13 13 13
2 1 0 1 1 1 1 2 2 3 3 3 4 5 5 5 5 5 6 6 6 7 6 6 6 6 8 7 6 7 7 7 7 5 6 6 6 4 5 7 7 7 6 2 5 4 4 4 4 3 2 1 1 1 2 2 5 6 5 5 5 9 11 10 13 13 13 13 11 11 11 12 14 14 14 14 13 13 13 13 13 13 12 11 10
3 3 2 2 1 0 1 1 1 2 1 1 3 4 4 5 4 4 5 6 7 7 5 6 6 6 8 8 7 7 6 6 6 7 7 6 6 6 5 6 8 7 5 5 8 11 3 5 3 3 2 1 0 3 3 3 3 3 3 5 8 10 9 7 11 13 13 13 13 12 12 12 12 13 14 14 13 13 13 13 13 12 11 11 10
4 4 3 3 2 2 1 2 1 1 2 1 1 3 4 4 3 4 5 5 6 6 6 7 7 7 7 8 8 8 8 8 8 7 8 7 6 6 5 5 6 6 8 7 7 11 6 3 4 3 2 2 1 2 5 5 4 4 3 4 7 7 6 7 7 11 13 13 13 13 13 13 12 12 13 14 13 13 13 11 11 11 11 11 10
4 4 4 3 3 3 4 4 3 3 3 3 3 2 2 2 3 2 4 5 5 4 7 7 5 5 7 7 8 8 7 9 8 8 8 7 6 6 6 6 7 6 9 9 11 10 10 3 4 3 3 1 3 2 5 7 5 5 4 4 3 5 5 5 5 5 11 13 13 13 13 13 13 13 13 13 12 12 12 12 12 11 10 9 9
3 5 5 5 5 5 5 5 5 4 3 2 2 3 3 2 2 3 3 3 5 4 5 5 5 6 7 8 8 7 5 6 6 6 6 8 6 8 9 7 7 6 7 9 8 8 9 8 5 5 5 4 5 4 4 5 6 6 5 7 6 6 5 6 5 3 8 12 13 12 13 13 12 13 12 12 11 11 11 12 11 10 10 9 9
5 3 5 6 5 5 6 5 5 5 4 3 3 3 3 2 2 2 3 3 2 4 5 6 6 6 6 7 8 8 7 8 8 7 7 7 7 8 8 7 8 7 6 7 9 8 7 7 4 6 4 5 4 0 3 4 6 6 6 7 7 6 4 4 5 5 6 11 12 12 12 12 12 12 12 11 10 10 10 11 11 10 9 8 8
5 5 4 4 5 5 5 5 5 4 4 3 3 3 2 2 1 1 1 2 2 4 4 4 6 5 5 9 9 8 8 9 9 8 6 8 7 7 8 7 7 7 5 6 7 7 7 8 5 2 2 3 1 3 6 6 5 7 6 7 7 6 5 5 4 4 7 10 11 11 10 10 10 11 11 10 9 9 9 9 9 8 8 8 7
5 4 6 4 5 6 5 5 5 5 4 4 4 3 2 2 2 1 2 3 3 3 4 4 4 5 5 8 9 9 8 9 8 8 7 8 7 7 9 8 7 6 7 8 8 8 8 9 7 4 4 5 4 3 6 8 8 8 7 6 5 4 5 5 3 4 4 4 4 5 7 7 8 9 9 8 8 8 8 8 8 8 7 6 6
6 5 5 6 4 6 5 5 5 5 5 4 3 3 3 2 2 3 3 3 3 4 5 6 6 6 6 7 8 8 9 9 9 9 9 9 8 9 9 9 8 7 8 8 8 8 8 9 6 6 6 6 4 5 4 7 8 8 11 8 6 5 3 5 7 3 4 5 5 6 6 5 7 6 7 7 6 7 7 7 6 6 6 5 4
6 6 7 6 5 4 5 5 4 3 3 2 2 3 3 2 2 1 1 2 3 4 4 5 6 6 7 7 8 9 8 8 9 10 10 9 7 8 8 8 7 8 8 8 8 8 8 8 8 7 5 5 2 4 3 5 6 4 7 8 11 9 8 5 3 8 5 5 6 4 5 7 6 8 8 6 5 5 5 5 5 4 3 3 2
5 5 5 5 5 4 4 3 3 4 4 3 3 4 3 2 2 1 2 2 2 3 4 5 6 6 7 7 8 7 9 13 15 12 11 11 10 9 7 6 7 8 9 8 8 7 7 8 6 4 5 5 6 7 6 6 9 11 10 7 9 8 7 6 4 2 5 7 5 5 4 3 5 4 4 3 2 4 3 3 3 4 4 2 2
5 5 5 5 5 6 5 4 4 4 4 3 4 7 5 3 3 2 2 2 3 4 4 4 6 7 8 8 8 13 15 15 15 15 14 13 13 10 10 8 8 8 8 8 7 7 8 8 8 7 7 8 8 10 11 12 10 5 8 10 10 8 7 5 2 3 4 6 7 6 3 1 4 4 3 3 2 2 2 2 2 2 3 5 7
6 6 5 6 6 6 6 5 5 5 4 4 6 8 6 5 4 3 3 3 3 4 5 5 5 7 7 8 8 11 12 12 11 11 12 14 14 16 16 15 12 10 9 8 8 9 9 9 8 8 9 10 10 9 11 9 7 11 11 12 11 10 11 11 10 2 4 7 6 6 4 1 3 5 3 2 1 1 1 2 3 5 9 10 11
6 5 6 7 6 5 4 5 5 5 5 5 9 8 8 7 5 4 4 3 3 5 5 6 5 5 7 8 7 7 8 9 10 10 10 12 14 15 17 17 16 17 14 11 9 9 9 8 9 10 10 10 9 9 8 6 9 9 9 10 12 14 13 12 11 11 7 9 8 7 5 1 2 4 3 1 0 1 2 4 7 10 11 12 12
5 7 8 6 6 5 5 6 6 6 6 5 8 9 9 9 7 5 4 4 4 5 5 6 5 5 5 7 7 6 6 12 11 9 9 10 10 13 15 17 17 17 17 17 15 12 10 11 11 11 12 10 11 11 11 12 9 11 9 9 10 11 12 13 10 7 10 11 8 7 6 3 2 3 3 2 1 1 4 6 10 10 11 12 12
7 7 6 7 6 6 7 7 7 6 7 6 9 10 10 9 8 5 4 4 5 6 6 6 5 5 5 6 6 7 7 8 9 9 10 10 10 10 11 9 10 13 16 16 19 19 14 10 10 11 10 11 12 10 11 10 11 12 12 12 12 10 11 10 5 6 6 8 10 9 4 3 3 4 4 2 2 3 3 8 11 10 11 12 12
8 9 9 8 8 7 7 6 6 6 6 6 9 9 9 8 7 5 3 4 5 6 7 6 6 5 5 6 6 7 7 7 7 10 11 11 11 10 10 12 12 11 11 11 11 10 11 10 11 11 10 10 11 10 9 11 14 13 14 14 13 9 6 8 8 8 8 1 6 8 6 5 2 5 4 3 3 5 4 7 10 10 11 12 12
6 5 5 5 7 8 7 5 5 7 7 7 7 8 8 7 5 3 3 4 5 5 6 7 7 6 6 6 6 7 7 7 10 12 12 11 12 12 13 12 11 11 11 12 13 12 11 11 11 12 11 10 9 10 10 12 11 8 8 8 10 10 10 8 7 6 8 4 1 5 7 6 2 7 4 2 3 6 4 4 6 8 10 11 12
7 7 8 8 7 7 6 6 7 7 7 7 9 8 8 7 4 3 3 4 5 6 6 6 6 6 6 6 6 6 7 7 9 12 12 12 9 12 13 13 12 11 10 8 12 15 15 14 13 13 13 13 11 11 14 18 15 13 11 10 10 11 11 10 7 7 8 6 4 4 9 7 5 5 6 3 3 5 5 4 3 5 9 11 11
8 9 9 7 6 6 6 7 7 7 8 6 10 9 9 8 6 4 3 4 5 6 7 6 6 7 7 9 7 6 7 8 9 10 13 12 10 11 12 13 13 12 11 9 6 6 6 7 9 11 13 13 13 11 14 18 17 18 15 15 14 13 13 14 13 10 7 5 4 5 8 8 6 7 9 4 5 3 3 3 3 4 7 9 10
9 8 6 7 6 5 6 6 6 8 8 6 9 9 9 8 6 4 3 3 5 7 6 6 6 6 6 6 8 7 6 8 11 12 13 10 8 9 11 12 13 12 9 7 8 8 7 7 8 9 10 10 9 7 9 16 19 18 16 15 13 14 13 10 11 9 5 2 6 7 9 6 9 6 10 6 4 2 1 1 2 2 2 4 5
Wind_Direction
154 154 110 115 91 92 1 325 328 324 342 339 38 359 6 22 25 360 357 3 353 60 109 111 125 147 164 178 178 179 188 202 210 205 224 232 229 245 198 202 193 194 189 189 178 194 178 221 203 178 192 196 191 195 200 190 187 187 194 197 204 210 208 213 216 211 204 223 287 243 219 253 244 272 288 35 23 330 357 342 346 346 346 345 344
164 148 148 163 134 120 223 298 306 322 325 312 345 1 346 345 352 358 357 348 343 325 356 94 146 181 185 182 187 186 183 188 199 206 210 220 233 245 219 204 207 198 199 197 203 211 196 202 209 216 207 207 209 209 211 205 211 197 204 209 211 217 221 223 226 221 223 232 238 239 224 230 247 276 290 237 267 325 332 348 337 342 347 342 341
161 159 157 160 161 181 220 226 265 259 259 275 319 321 329 312 316 311 309 305 290 299 303 300 231 200 202 192 193 176 191 195 203 200 208 220 220 226 253 221 210 212 210 212 212 209 236 195 217 213 216 219 224 224 221 215 221 219 204 216 219 221 229 232 230 231 230 233 240 242 230 235 251 254 252 238 258 315 349 328 337 346 342 340 339
162 163 169 170 182 192 214 203 235 241 215 231 245 249 244 265 270 257 256 229 268 280 261 238 242 215 182 208 182 189 196 199 206 203 209 212 218 232 226 253 224 216 218 223 228 221 224 219 235 228 208 218 229 235 233 225 229 239 218 215 221 224 226 231 233 233 233 231 234 239 239 245 252 251 249 250 252 277 341 348 351 349 327 333 350
174 170 172 181 179 189 206 218 223 223 217 218 222 223 234 256 261 268 269 255 264 268 249 215 230 211 181 197 187 201 189 195 215 215 211 213 215 218 230 232 254 235 222 223 232 228 226 230 228 236 255 239 228 235 235 234 237 240 239 226 222 226 230 231 233 234 236 235 236 237 237 238 245 249 251 253 255 257 298 318 318 301 292 324 314
166 167 160 163 181 196 203 225 219 206 204 196 221 211 245 249 260 252 260 245 262 266 200 230 227 159 189 185 190 206 180 204 213 215 213 216 213 212 223 231 233 247 245 232 229 234 236 238 243 254 240 244 248 243 235 235 239 251 251 251 226 224 231 232 233 236 236 239 237 236 238 240 240 244 249 252 253 250 251 267 273 282 300 296 297
168 163 167 165 173 205 225 237 219 205 207 207 203 214 196 236 230 237 263 291 270 237 207 206 248 191 184 182 200 186 184 214 219 223 214 217 207 216 214 226 225 229 231 224 246 238 238 242 246 252 250 250 255 251 230 234 242 248 252 251 248 226 228 229 229 231 234 235 236 236 238 239 240 242 246 248 249 244 248 244 259 273 276 288 291
151 153 155 176 175 189 219 237 232 221 216 200 189 207 200 212 239 192 280 295 320 333 83 210 209 241 181 178 192 186 191 202 213 220 222 217 224 218 211 215 218 222 226 222 222 244 247 243 244 250 254 254 255 255 242 242 252 260 260 263 257 238 232 224 224 226 228 230 233 235 237 239 241 243 244 247 249 251 257 265 267 266 268 273 290
155 144 138 165 190 193 204 219 226 221 224 183 202 173 154 206 235 220 112 286 311 289 322 180 214 228 216 174 188 189 199 199 205 203 190 209 226 231 220 216 217 223 221 217 213 234 248 251 250 251 252 252 252 253 255 256 259 259 258 259 259 253 243 220 215 221 224 226 229 234 236 239 241 242 243 247 248 246 251 251 253 259 259 264 272
148 149 130 160 186 211 192 195 201 203 211 185 199 142 173 192 233 232 186 189 223 234 253 281 248 265 270 225 185 204 213 210 198 189 191 207 211 225 227 226 217 221 219 217 219 217 232 249 254 257 256 253 249 249 252 255 258 261 261 260 259 260 256 242 220 215 220 224 228 232 236 239 240 242 245 246 249 248 252 261 260 247 259 271 276
151 144 139 136 107 109 117 122 126 141 163 185 166 161 159 171 212 248 162 197 179 196 306 288 319 312 299 286 302 221 220 210 195 194 198 205 209 217 215 226 221 222 224 220 218 218 225 228 235 239 247 249 248 245 246 249 253 256 258 260 259 261 262 254 242 220 217 222 226 229 234 238 241 244 246 249 250 250 250 254 267 281 285 284 282
150 138 134 122 110 111 102 96 111 115 153 182 198 187 197 195 221 217 253 172 104 115 74 16 335 308 283 293 271 271 244 204 202 206 200 204 212 198 214 213 216 227 225 222 218 222 224 224 227 233 240 248 250 248 245 246 248 250 252 255 256 257 259 259 250 239 220 221 224 228 231 235 238 241 245 247 250 253 254 259 267 270 273 273 272
150 139 147 143 115 105 93 94 75 120 126 264 227 224 188 187 180 138 220 262 320 95 118 119 358 306 278 258 277 238 244 203 212 209 210 211 198 207 210 204 216 218 224 213 218 220 223 224 225 230 234 238 246 248 249 248 248 248 250 251 252 253 256 258 258 251 242 224 225 228 230 233 235 239 243 246 250 253 257 260 265 268 270 272 275
163 157 149 151 146 129 105 141 177 141 139 156 286 236 166 148 141 127 47 193 253 158 169 117 357 221 315 325 318 294 238 220 217 223 218 213 207 212 208 214 220 217 205 210 221 220 223 221 223 227 232 233 240 242 245 247 247 245 246 250 252 253 256 255 255 252 247 242 228 227 230 232 237 237 241 246 250 252 256 263 268 270 274 274 270
176 169 164 174 157 150 192 180 215 189 200 169 232 215 180 181 171 178 187 68 238 254 167 174 219 158 178 316 306 349 331 335 273 246 222 216 199 220 220 221 230 215 197 201 221 223 222 217 219 222 228 231 233 236 238 239 238 240 244 249 251 252 253 256 255 253 249 246 246 238 229 234 238 242 246 249 251 254 254 258 262 265 269 267 265
181 178 181 176 169 187 192 183 192 203 185 199 239 246 176 184 184 202 145 232 283 299 194 170 152 125 317 277 254 93 322 302 318 291 247 225 209 219 217 230 240 212 182 210 221 220 223 215 223 220 225 228 230 233 238 238 242 245 245 248 249 251 251 253 256 258 258 255 250 246 240 235 242 246 248 252 260 262 256 257 262 271 273 274 270
193 189 186 183 180 181 185 204 194 201 189 213 213 225 208 196 182 179 190 200 242 251 293 187 188 173 150 88 328 13 231 269 345 285 352 258 220 221 222 231 237 224 209 229 224 226 222 218 225 225 227 226 227 229 235 238 240 240 245 246 250 252 251 252 255 258 259 259 257 256 253 245 246 251 258 265 263 263 261 265 275 282 283 275 271
192 193 199 190 190 187 190 191 199 193 193 202 207 181 193 182 193 194 207 214 219 185 277 240 210 190 189 159 173 206 305 291 34 310 321 253 309 277 240 236 228 224 223 236 230 230 219 232 218 230 227 225 226 230 229 234 232 232 235 246 249 252 251 251 253 254 257 260 260 261 263 264 267 267 268 265 258 260 266 278 279 278 277 278 280
194 190 189 195 188 186 190 192 187 185 185 178 191 207 200 194 169 186 210 183 167 229 235 250 333 223 207 205 197 209 151 1 305 331 333 321 341 328 306 231 224 233 234 232 234 237 232 226 232 233 231 222 225 228 230 231 230 232 233 240 243 247 250 252 255 258 262 265 266 268 276 281 281 281 279 279 276 264 258 268 274 280 286 292 299
193 198 196 196 186 186 188 192 188 183 181 189 202 200 185 185 185 190 182 183 186 205 238 196 218 277 176 198 222 207 191 197 174 211 235 286 307 313 274 296 266 236 227 234 224 222 231 225 232 235 233 228 223 226 228 230 229 233 240 242 244 245 248 254 259 265 267 269 277 283 288 295 298 302 308 309 321 306 325 329 337 339 335 335 352
210 199 202 200 203 193 185 190 196 197 200 200 202 186 194 184 181 185 197 203 195 208 205 221 194 232 242 280 168 212 193 200 178 169 190 238 281 262 293 325 340 287 279 265 262 239 234 231 229 233 233 234 223 227 226 221 222 225 236 238 242 247 253 260 263 265 274 294 324 345 6 20 25 27 14 12 339 57 71 69 58 50 52 60 59
239 229 210 206 214 204 195 202 207 201 209 210 198 197 200 200 195 198 198 201 206 200 204 215 209 223 203 212 280 317 355 171 185 176 217 207 248 284 289 303 311 292 306 305 286 250 232 225 229 237 238 242 234 222 223 219 212 219 228 232 241 247 251 250 243 150 103 88 85 76 79 72 74 57 26 37 66 86 75 69 71 64 62 66 70
200 222 218 214 215 193 223 229 222 223 226 208 208 206 206 205 196 190 195 197 202 207 218 215 200 203 206 194 212 215 229 237 237 199 199 220 254 267 282 258 255 300 286 296 290 258 233 221 221 229 234 239 246 230 223 220 211 213 209 219 228 231 211 139 127 118 111 104 97 90 91 81 75 71 75 79 78 79 76 73 72 76 74 71 70
194 196 217 206 204 206 210 196 212 202 212 206 210 211 207 206 202 202 206 206 198 203 211 218 216 220 224 199 211 212 223 222 224 194 185 217 207 275 295 309 300 233 287 312 288 282 272 237 221 221 231 250 249 232 221 217 215 204 199 201 199 159 136 130 122 114 109 100 94 89 83 80 75 77 77 71 72 76 78 78 80 79 78 75 73
218 210 221 204 199 203 203 202 211 207 206 208 218 223 229 219 222 220 214 208 207 205 211 220 213 219 230 207 214 205 226 222 209 213 214 217 217 276 278 191 267 302 308 342 318 302 241 261 222 213 197 217 235 232 218 207 212 193 179 153 148 140 132 125 118 113 105 101 97 95 91 86 87 84 77 77 80 78 78 79 77 77 77 77 75
221 224 210 192 201 211 198 203 197 201 202 204 197 198 212 215 215 213 219 219 196 208 218 224 221 231 221 229 220 217 226 218 218 206 220 203 222 215 275 309 192 287 296 321 333 336 312 270 265 176 157 198 223 224 229 210 199 163 152 132 136 133 126 121 119 115 112 110 108 100 96 96 92 88 88 86 83 81 79 78 77 76 76 76 75
219 238 196 192 205 206 210 203 194 206 194 191 203 203 198 204 197 211 236 236 226 217 226 226 227 229 229 233 240 234 227 214 203 222 212 215 214 213 177 296 315 297 309 304 304 231 248 309 347 316 182 178 191 199 218 239 139 141 134 124 121 124 121 122 121 120 119 116 108 105 106 104 101 99 97 93 89 87 84 81 78 76 75 75 75
269 265 254 200 195 197 209 217 208 212 212 209 195 212 215 220 222 221 237 232 232 235 225 218 226 227 231 233 234 246 235 228 212 215 214 213 213 192 166 148 222 294 315 297 318 287 232 256 329 315 292 192 184 186 160 134 124 137 130 122 124 120 125 125 123 120 120 118 117 116 111 109 107 104 101 96 92 87 84 82 80 78 76 76 75
243 245 268 219 208 210 209 214 215 218 222 197 193 209 221 228 227 226 233 234 229 233 220 226 240 246 237 231 232 247 248 236 234 231 225 207 206 193 176 182 148 241 278 284 281 272 300 211 249 293 323 317 149 142 153 153 150 152 136 128 127 132 131 125 125 124 123 122 122 121 119 116 111 107 103 98 93 88 83 80 79 77 77 75 74
210 283 295 298 165 216 189 228 211 211 221 214 210 220 223 228 223 227 230 222 224 227 224 224 231 239 244 225 226 235 248 244 246 232 232 226 206 192 171 165 177 202 217 258 282 205 276 270 233 263 321 1 16 119 155 143 157 155 143 136 136 139 134 128 127 124 120 121 123 125 124 118 113 107 101 95 91 87 83 80 78 77 77 75 72
175 189 58 292 264 175 186 213 213 209 200 211 222 231 232 234 229 235 236 232 232 244 238 227 239 241 245 243 241 237 237 246 249 242 237 228 230 190 176 172 205 215 199 166 281 261 175 257 259 219 259 322 20 101 111 124 159 158 142 136 132 137 130 125 127 124 123 123 120 118 114 114 111 106 100 96 92 88 85 82 81 79 76 69 58
138 144 146 159 179 177 203 224 257 281 250 199 220 236 242 239 237 237 231 223 230 229 231 227 222 222 232 235 236 236 232 239 246 253 256 243 230 220 187 186 204 207 136 187 235 264 213 230 269 274 250 278 56 137 117 120 100 103 129 127 136 135 131 128 127 128 127 122 117 112 110 110 109 106 103 99 96 92 89 86 84 81 77 73 64
149 145 144 151 148 154 100 67 44 357 320 320 219 234 245 260 258 266 273 252 237 228 234 239 231 235 235 232 235 238 237 247 250 250 252 251 239 230 209 194 204 178 175 187 229 257 270 211 231 249 298 290 215 162 141 148 144 136 112 122 146 144 126 130 129 129 126 119 114 110 109 107 106 105 104 101 94 92 92 91 90 87 83 78 71
155 144 146 151 142 130 120 110 91 82 69 63 62 64 19 331 323 317 304 295 277 303 284 273 278 256 260 247 247 248 235 239 235 239 241 247 244 244 232 213 211 196 185 182 208 225 248 223 238 230 267 228 234 200 170 162 155 138 130 145 79 66 98 100 114 118 120 117 115 114 112 109 107 105 105 104 100 99 98 96 92 89 82 75 71
166 150 151 145 134 118 108 107 102 88 92 91 67 69 58 30 341 332 320 331 316 275 260 262 253 259 257 268 272 272 263 249 239 236 243 250 245 247 248 229 226 212 190 199 199 219 231 242 201 209 211 217 211 199 180 177 151 151 112 63 55 58 55 90 93 96 116 115 116 116 115 114 113 112 111 109 108 106 104 102 99 96 91 85 80
148 150 136 137 126 120 113 111 109 112 102 89 78 74 80 56 25 347 341 328 294 263 264 255 269 267 261 253 255 257 256 259 257 253 242 243 247 249 250 236 234 231 197 197 213 226 227 236 220 200 194 188 224 125 164 143 140 123 105 101 99 109 106 103 117 134 125 119 117 117 117 119 119 118 115 112 112 110 107 105 104 102 99 94 82
153 138 120 122 122 123 127 132 132 126 131 131 118 110 99 94 89 75 342 320 314 312 306 297 292 300 300 290 278 258 250 252 255 253 249 245 243 237 240 243 238 232 211 198 214 222 235 233 231 205 190 212 160 162 162 147 126 109 104 118 136 132 126 102 102 105 115 110 110 114 119 122 121 119 116 116 116 113 104 97 94 88 77 66 62
148 149 145 147 138 141 142 148 147 153 157 157 145 141 133 99 69 49 14 346 334 328 320 316 309 310 284 269 270 274 276 259 257 257 250 248 241 234 236 239 237 230 231 223 217 220 226 239 220 191 202 198 198 192 181 160 145 127 111 108 114 122 123 123 129 135 147 133 135 116 114 114 112 112 116 119 119 108 99 91 85 81 75 69 62
160 157 163 150 165 150 164 158 161 164 165 148 130 118 105 78 48 26 10 350 338 335 328 322 320 314 297 291 289 275 261 270 276 268 254 243 235 240 242 247 237 232 234 229 221 219 221 230 229 210 199 213 205 186 169 172 161 153 149 140 140 158 153 155 144 137 128 111 85 101 117 123 124 120 111 112 113 109 104 99 88 84 81 77 67
171 170 170 174 174 166 169 179 173 135 113 114 121 121 114 118 81 46 358 328 328 325 320 315 311 305 301 299 300 299 291 268 260 270 289 281 260 244 234 230 234 233 234 231 226 220 218 218 218 212 195 189 186 12 53 142 146 167 182 164 161 168 172 182 187 156 152 133 139 130 119 112 102 101 103 104 107 108 105 98 96 94 99 103 84
181 177 170 164 164 181 192 163 140 159 161 175 159 154 149 151 165 175 219 256 276 296 306 308 306 301 299 297 294 294 296 300 306 297 272 268 282 280 256 232 236 234 235 228 227 220 215 216 214 183 173 184 180 156 158 191 191 192 183 180 172 163 144 144 165 181 148 145 138 130 140 153 127 121 125 126 132 122 98 118 112 103 91 75 59
176 167 174 185 185 191 190 186 190 192 202 171 192 168 161 162 170 198 224 252 263 265 276 289 300 298 294 292 289 292 293 292 292 294 292 278 265 262 268 259 239 236 232 230 223 221 219 220 211 192 192 201 186 187 190 200 195 141 166 179 162 151 132 130 116 191 180 152 144 142 143 173 132 120 125 135 116 116 141 136 91 70 81 94 104
177 182 183 192 205 202 196 189 203 217 213 196 192 162 164 170 166 187 214 240 244 260 263 271 284 301 299 292 285 289 291 287 283 276 282 282 271 265 266 265 262 250 233 228 225 215 223 222 212 205 207 207 204 194 203 195 179 181 186 181 168 156 166 162 182 142 217 173 146 134 142 142 146 135 136 129 134 161 135 89 104 89 103 109 108
194 183 196 209 207 195 188 198 218 224 225 207 189 180 176 182 195 205 208 226 234 245 256 258 262 275 291 296 292 286 283 277 277 274 263 258 260 259 256 257 259 257 253 239 226 224 219 223 217 210 208 211 203 194 197 165 189 186 186 178 176 176 178 188 178 183 167 174 147 142 130 126 128 117 116 83 103 198 124 118 102 102 108 109 110
175 190 212 206 211 192 193 207 226 229 235 205 191 189 188 189 199 210 219 230 243 245 249 256 264 280 297 302 300 293 292 290 288 280 274 278 271 263 260 252 246 246 246 248 248 241 224 225 224 220 212 210 212 208 193 194 183 179 174 182 187 191 188 186 184 143 163 177 137 134 143 147 128 122 110 31 73 128 125 119 109 107 111 114 113
190 208 211 212 210 202 205 211 222 227 235 205 194 194 195 198 204 202 237 240 248 257 251 256 263 272 279 288 296 301 300 302 298 290 279 271 265 264 267 257 246 244 244 240 240 245 248 238 226 226 215 207 216 208 199 179 168 181 180 191 188 188 191 191 123 92 107 155 158 129 101 142 127 116 100 65 81 98 105 121 114 113 114 115 113
195 205 207 209 216 213 214 206 213 234 240 197 199 200 200 205 209 205 239 244 256 259 258 254 256 265 276 277 282 284 290 291 289 291 290 288 288 281 263 258 250 244 242 239 235 233 234 231 244 241 234 216 221 217 193 181 186 187 184 185 185 181 123 76 70 116 137 43 151 139 140 150 158 95 92 103 103 93 96 98 104 111 112 114 113
216 218 231 216 221 222 216 195 208 243 247 205 203 209 209 215 210 226 238 264 263 264 264 259 254 253 255 261 272 279 282 282 287 286 285 285 281 278 277 269 262 250 239 231 237 238 229 229 232 238 243 243 226 218 192 183 185 142 106 90 96 118 133 128 125 159 154 167 127 124 126 146 174 119 119 89 105 96 86 94 81 100 111 115 115
207 211 218 215 217 215 209 198 209 234 252 213 200 206 209 201 180 226 241 265 267 269 267 263 260 257 255 257 258 269 278 280 284 290 292 296 291 287 284 274 258 253 253 241 223 228 233 235 240 251 262 276 279 237 197 186 181 149 128 128 153 149 144 144 140 157 177 173 186 174 132 131 183 143 119 99 98 98 99 91 93 91 108 113 113
209 218 217 219 214 205 210 218 204 222 246 217 194 202 203 193 187 208 225 240 274 271 274 269 265 265 261 271 283 282 281 282 286 295 295 297 288 283 282 280 273 256 248 237 219 223 226 245 250 249 252 260 264 253 214 198 170 158 159 175 174 163 170 165 164 165 155 165 196 181 117 143 145 137 111 114 86 52 75 89 96 105 104 102 103
212 213 204 210 218 210 216 220 218 219 240 235 198 206 208 193 180 194 215 245 274 273 272 284 279 281 285 282 286 282 279 289 299 295 292 289 280 277 276 277 272 267 258 235 220 225 228 237 246 244 249 240 236 227 219 202 182 182 182 173 159 170 172 165 138 122 114 248 210 194 123 164 146 164 140 117 77 59 42 48 89 99 109 119 114